Weather History for Fort Morgan, CO

Change the Weather History Date:

Friday, July 26, 2013

  Actual Average (KAKO) Record (KAKO)
Temperature  
Mean Temperature 66 °F 74 °F  
Max Temperature 74 °F 88 °F 99 °F (1995)
Min Temperature 58 °F 60 °F 52 °F (1950)
Degree Days  
Heating Degree Days 0    
Month to date heating degree days  
Cooling Degree Days 1    
Month to date cooling degree days  
Growing Degree Days 16 (Base 50)    
Moisture  
Dew Point 55 °F    
Average Humidity 75    
Maximum Humidity 91    
Minimum Humidity 54    
Precipitation  
Precipitation 0.00 in 0.09 in 5.50 in (1957)
Month to date precipitation 2.11  
Year to date precipitation 10.75  
Sea Level Pressure  
Sea Level Pressure 30.25 in    
Wind  
Wind Speed 7 mph (ESE)    
Max Wind Speed 29 mph    
Max Gust Speed 56 mph    
Visibility 10 miles    
Events Thunderstorm    
T = Trace of Precipitation, MM = Missing Value Source: NWS Daily Summary

Daily Weather History Graph

Daily Weather History Graph

Search for Another Location

Airport:

Trip Planner

Search our weather history database for the weather conditions in past years. The results will help you decide how hot, cold, wet, or windy it might be!

Date:

Astronomy

Jul. 26, 2013 Rise Set
Actual Time 5:47 AM MDT 8:15 PM MDT
Civil Twilight 5:16 AM MDT 8:46 PM MDT
Nautical Twilight 4:37 AM MDT 9:24 PM MDT
Astronomical Twilight 3:54 AM MDT 10:07 PM MDT
Moon 10:29 PM MDT (7/26) 10:27 AM MDT (7/26)
Length of Visible Light 15h 29m
Length of Day
14h 27m
Waning Gibbous, 79% of the Moon is Illuminated
Jul 26
Waning Gibbous
Jul 29
Last Quarter
Aug 6
New
Aug 14
First Quarter
Aug 20
Full

Hourly Weather History & Observations

Time (MDT) Temp. Dew Point Humidity Pressure Visibility Wind Dir Wind Speed Gust Speed Precip Events Conditions
12:15 AM 65.5 °F 56.5 °F 73% 30.27 in 10.0 mi NE 4.6 mph - N/A   Clear
12:35 AM 65.8 °F 56.5 °F 72% 30.27 in 10.0 mi ENE 4.6 mph - N/A   Clear
12:55 AM 64.4 °F 56.7 °F 76% 30.26 in 10.0 mi East 4.6 mph - N/A   Clear
1:15 AM 63.5 °F 56.8 °F 79% 30.27 in 10.0 mi ENE 3.5 mph - N/A   Clear
1:35 AM 63.0 °F 56.7 °F 80% 30.28 in 10.0 mi North 6.9 mph - N/A   Clear
1:55 AM 64.0 °F 56.3 °F 76% 30.27 in 10.0 mi NE 4.6 mph - N/A   Scattered Clouds
2:15 AM 63.7 °F 55.9 °F 76% 30.26 in 10.0 mi East 5.8 mph - N/A   Scattered Clouds
2:35 AM 62.8 °F 56.3 °F 79% 30.26 in 10.0 mi East 4.6 mph - N/A   Clear
2:55 AM 62.1 °F 56.3 °F 81% 30.25 in 10.0 mi ENE 3.5 mph - N/A   Clear
3:15 AM 61.9 °F 56.3 °F 82% 30.25 in 10.0 mi ENE 4.6 mph - N/A   Clear
3:35 AM 62.4 °F 56.3 °F 80% 30.26 in 10.0 mi NE 6.9 mph - N/A   Clear
3:55 AM 62.2 °F 56.5 °F 81% 30.26 in 10.0 mi North - - N/A   Clear
4:15 AM 61.3 °F 56.5 °F 84% 30.26 in 10.0 mi NE 8.1 mph - N/A   Clear
4:35 AM 60.8 °F 56.7 °F 86% 30.25 in 10.0 mi East 5.8 mph - N/A   Clear
4:55 AM 60.4 °F 56.5 °F 87% 30.26 in 10.0 mi ENE 5.8 mph - N/A   Clear
5:15 AM 59.5 °F 56.3 °F 89% 30.26 in 10.0 mi East 8.1 mph - N/A   Clear
5:35 AM 59.4 °F 56.1 °F 89% 30.26 in 10.0 mi East 4.6 mph - N/A   Clear
5:55 AM 58.8 °F 56.1 °F 91% 30.27 in 10.0 mi East 5.8 mph - N/A   Clear
6:15 AM 58.3 °F 55.8 °F 91% 30.27 in 10.0 mi East 4.6 mph - N/A   Clear
6:35 AM 60.3 °F 57.2 °F 90% 30.28 in 10.0 mi Calm Calm - N/A   Clear
6:55 AM 62.4 °F 58.1 °F 86% 30.28 in 10.0 mi Calm Calm - N/A   Clear
7:15 AM 64.2 °F 58.6 °F 82% 30.28 in 10.0 mi East 4.6 mph - N/A   Clear
7:35 AM 65.7 °F 58.1 °F 77% 30.30 in 10.0 mi East 3.5 mph - N/A   Clear
7:55 AM 66.6 °F 58.1 °F 74% 30.29 in 10.0 mi ESE 4.6 mph - N/A   Clear
8:15 AM 68.0 °F 58.1 °F 71% 30.30 in 10.0 mi ESE 5.8 mph - N/A   Clear
8:35 AM 70.5 °F 57.7 °F 64% 30.30 in 10.0 mi SSE 6.9 mph - N/A   Clear
8:55 AM 70.7 °F 57.6 °F 63% 30.30 in 10.0 mi SSE 9.2 mph - N/A   Clear
9:15 AM 72.0 °F 57.4 °F 60% 30.30 in 10.0 mi SE 6.9 mph - N/A   Clear
9:35 AM 73.6 °F 56.8 °F 56% 30.30 in 10.0 mi SSE 6.9 mph - N/A   Clear
9:55 AM 74.8 °F 57.4 °F 54% 30.30 in 10.0 mi South 6.9 mph - N/A   Clear
10:15 AM - - N/A% 30.31 in 10.0 mi SE 6.9 mph - N/A   Clear
10:35 AM - - N/A% 30.31 in 10.0 mi Calm Calm - N/A   Clear
10:55 AM - - N/A% 30.31 in 10.0 mi ESE 6.9 mph - N/A   Clear
11:15 AM - - N/A% 30.31 in 10.0 mi SE 5.8 mph - N/A   Clear
11:35 AM - - N/A% 30.30 in 10.0 mi SE 6.9 mph - N/A   Clear
11:55 AM - - N/A% 30.29 in 10.0 mi East 6.9 mph - N/A   Scattered Clouds
12:15 PM - - N/A% 30.29 in 10.0 mi ENE 18.4 mph 25.3 mph N/A   Mostly Cloudy
12:35 PM - - N/A% 30.29 in 10.0 mi ENE 17.3 mph 24.2 mph N/A   Scattered Clouds
12:55 PM - - N/A% 30.28 in 10.0 mi ENE 17.3 mph 25.3 mph N/A   Clear
1:15 PM - - N/A% 30.28 in 10.0 mi ENE 15.0 mph 23.0 mph N/A   Clear
1:35 PM - - N/A% 30.27 in 10.0 mi ENE 12.7 mph - N/A   Clear
1:55 PM - - N/A% 30.26 in 10.0 mi East 11.5 mph 20.7 mph N/A   Clear
2:15 PM - - N/A% 30.25 in 10.0 mi East 11.5 mph 19.6 mph N/A   Clear
2:35 PM - - N/A% 30.25 in 10.0 mi ESE 13.8 mph 18.4 mph N/A   Clear
2:55 PM - - N/A% 30.24 in 10.0 mi ESE 13.8 mph 18.4 mph N/A   Clear
3:15 PM - - N/A% 30.24 in 10.0 mi ESE 12.7 mph 18.4 mph N/A   Clear
3:35 PM - - N/A% 30.23 in 10.0 mi SE 12.7 mph - N/A   Clear
3:55 PM - - N/A% 30.23 in 10.0 mi ESE 6.9 mph 16.1 mph N/A   Clear
4:15 PM - - N/A% 30.22 in 10.0 mi ESE 11.5 mph 18.4 mph N/A   Clear
4:35 PM - - N/A% 30.20 in 10.0 mi SSE 8.1 mph - N/A   Clear
4:55 PM - - N/A% 30.21 in 10.0 mi ESE 10.4 mph - N/A   Clear
5:15 PM - - N/A% 30.20 in 10.0 mi ESE 11.5 mph 16.1 mph N/A   Clear
5:35 PM - - N/A% 30.19 in 10.0 mi ESE 12.7 mph - N/A   Clear
5:55 PM - - N/A% 30.19 in 10.0 mi ESE 12.7 mph - N/A   Clear
6:15 PM - - N/A% 30.20 in 10.0 mi East 11.5 mph - N/A   Clear
6:35 PM - - N/A% 30.19 in 10.0 mi East 10.4 mph - N/A Thunderstorm Thunderstorm
6:55 PM 63.7 °F 53.2 °F 69% 30.31 in 1.8 mi NW 28.8 mph 56.4 mph N/A Thunderstorm Thunderstorm
7:15 PM 60.6 °F 50.4 °F 69% 30.26 in 1.8 mi North 10.4 mph 25.3 mph N/A Thunderstorm Thunderstorm
7:35 PM 58.1 °F 53.1 °F 83% 30.24 in 7.0 mi South 12.7 mph - N/A Thunderstorm Thunderstorm
7:55 PM 62.1 °F 52.0 °F 70% 30.14 in 10.0 mi SE 17.3 mph 20.7 mph N/A   Mostly Cloudy
8:15 PM 62.2 °F 53.1 °F 72% 30.17 in 10.0 mi SW 8.1 mph - N/A   Clear
8:35 PM 60.3 °F 53.4 °F 78% 30.17 in 10.0 mi SSW 8.1 mph - N/A   Clear
8:55 PM 60.3 °F 52.7 °F 76% 30.18 in 10.0 mi SSW 9.2 mph - N/A   Clear
9:15 PM 61.0 °F 52.2 °F 73% 30.18 in 10.0 mi South 8.1 mph - N/A   Clear
9:35 PM 61.0 °F 51.6 °F 71% 30.20 in 10.0 mi SSW 5.8 mph - N/A   Scattered Clouds
9:55 PM 61.7 °F 51.8 °F 70% 30.21 in 10.0 mi South 6.9 mph - N/A   Scattered Clouds
10:15 PM 61.7 °F 52.2 °F 71% 30.22 in 10.0 mi SE 3.5 mph - N/A   Mostly Cloudy
10:35 PM 61.7 °F 51.3 °F 69% 30.22 in 10.0 mi SE 4.6 mph - N/A   Scattered Clouds
10:55 PM 62.2 °F 50.5 °F 65% 30.22 in 10.0 mi South 9.2 mph - N/A   Scattered Clouds
11:15 PM 62.4 °F 50.7 °F 66% 30.22 in 10.0 mi SE 4.6 mph - N/A   Scattered Clouds
11:35 PM 62.2 °F 50.4 °F 65% 30.21 in 10.0 mi Calm Calm - N/A   Clear
11:55 PM 62.6 °F 50.0 °F 63% 30.21 in 10.0 mi South 5.8 mph - N/A   Clear